Volver al catálogo

CUBY-3

ActivoRadioaficionadoSSO
NORAD 69875·PAYLOAD·🇦🇪 UAE

Lanzado Jul 7, 2026 desde Vandenberg Space Force Base

Loading…

Próximos Pases (próximas 24 horas)

TLE

ActualizadoSource: Space-Track

Época: Sep 14, 2026, 12:49 UTC

1 69875U 26156G   26257.53413276  .00000630  00000-0  69168-4 0  9991
2 69875  97.7427 156.7217 0001944 250.8412 109.2596 14.91060064 10310

Sigue CUBY-3 en tiempo real con AllMySat

Download on the App Store